Weather History for Rensselaer, IN

Change the Weather History Date:

Monday, August 25, 2014

  Actual Average (KVPZ) Record (KVPZ)
Temperature  
Mean Temperature 76 °F 70 °F  
Max Temperature 87 °F 80 °F 92 °F (2003)
Min Temperature 64 °F 60 °F 54 °F (2005)
Degree Days  
Heating Degree Days 0 1  
Month to date heating degree days 1  
Since 1 June heating degree days 46  
Since 1 July heating degree days 5  
Cooling Degree Days 10 5  
Month to date cooling degree days 157  
Year to date cooling degree days 608  
Since 1 June cooling degree days 561  
Growing Degree Days 26 (Base 50)    
Moisture  
Dew Point 72 °F    
Average Humidity 92    
Maximum Humidity 100    
Minimum Humidity 57    
Precipitation  
Precipitation 0.09 in 0.14 in 1.58 in (2001)
Month to date precipitation 3.49  
Year to date precipitation 24.72  
Sea Level Pressure  
Sea Level Pressure 30.04 in    
Wind  
Wind Speed 2 mph (South)    
Max Wind Speed 12 mph    
Max Gust Speed 29 mph    
Visibility 7 miles    
Events Fog , Rain , Thunderstorm    
T = Trace of Precipitation, MM = Missing Value Source: NWS Daily Summary

Daily Weather History Graph

Daily Weather History Graph

Search for Another Location

Airport:

Trip Planner

Search our weather history database for the weather conditions in past years. The results will help you decide how hot, cold, wet, or windy it might be!

Date:

Astronomy

Aug. 25, 2014 Rise Set
Actual Time 6:08 AM CDT 7:32 PM CDT
Civil Twilight 5:39 AM CDT 8:00 PM CDT
Nautical Twilight 5:05 AM CDT 8:35 PM CDT
Astronomical Twilight 4:28 AM CDT 9:11 PM CDT
Moon 6:13 AM CDT (8/25) 7:21 PM CDT (8/25)
Length of Visible Light 14h 21m
Length of Day
13h 23m
New Moon, 0% of the Moon is Illuminated
Aug 25
New Moon
Sep 2
First Quarter
Sep 8
Full
Sep 15
Last Quarter
Sep 24
New

Hourly Weather History & Observations

Time (CDT) Temp. Heat Index Dew Point Humidity Pressure Visibility Wind Dir Wind Speed Gust Speed Precip Events Conditions
12:15 AM 71.6 °F - 71.6 °F 100% 30.03 in 3.0 mi Calm Calm - N/A   Clear
12:35 AM 71.6 °F - 71.6 °F 100% 30.03 in 2.5 mi Calm Calm - N/A   Clear
12:55 AM 71.6 °F - 71.6 °F 100% 30.03 in 2.0 mi Calm Calm - N/A   Clear
1:15 AM 71.6 °F - 71.6 °F 100% 30.03 in 2.0 mi Calm Calm - N/A   Clear
1:35 AM 71.6 °F - 71.6 °F 100% 30.02 in 1.5 mi Calm Calm - N/A   Mist
1:55 AM 69.8 °F - 69.8 °F 100% 30.02 in 1.2 mi Calm Calm - N/A   Mist
2:15 AM 69.8 °F - 69.8 °F 100% 30.02 in 1.5 mi Calm Calm - N/A   Mist
2:35 AM 69.8 °F - 69.8 °F 100% 30.01 in 1.2 mi Calm Calm - N/A   Mist
2:55 AM 69.8 °F - 69.8 °F 100% 30.02 in 1.5 mi ESE 3.5 mph - N/A   Mist
3:15 AM 69.8 °F - 69.8 °F 100% 30.02 in 1.0 mi Calm Calm - N/A   Mist
3:35 AM 69.8 °F - 69.8 °F 100% 30.02 in 1.0 mi Calm Calm - N/A   Mist
3:55 AM 69.8 °F - 69.8 °F 100% 30.02 in 1.0 mi Calm Calm - N/A   Mist
4:15 AM 68.0 °F - 68.0 °F 100% 30.02 in 0.5 mi Calm Calm - N/A Fog Fog
4:35 AM 68.0 °F - 68.0 °F 100% 30.02 in 0.2 mi Calm Calm - N/A Fog Fog
4:55 AM 68.0 °F - 68.0 °F 100% 30.03 in 0.2 mi Calm Calm - N/A Fog Fog
5:15 AM 66.2 °F - 66.2 °F 100% 30.02 in 0.2 mi Calm Calm - N/A Fog Fog
5:35 AM 66.2 °F - 66.2 °F 100% 30.03 in 0.2 mi Calm Calm - N/A Fog Fog
5:55 AM 64.4 °F - 64.4 °F 100% 30.03 in 0.2 mi Calm Calm - N/A Fog Fog
6:35 AM 64.4 °F - 64.4 °F 100% 30.04 in 0.2 mi Calm Calm - N/A Fog Fog
6:55 AM 64.4 °F - 64.4 °F 100% 30.04 in 0.2 mi Calm Calm - N/A Fog Fog
7:15 AM 66.2 °F - 66.2 °F 100% 30.05 in 1.2 mi Calm Calm - N/A   Mist
7:35 AM 68.0 °F - 68.0 °F 100% 30.05 in 2.5 mi Calm Calm - N/A   Clear
7:55 AM 68.0 °F - 68.0 °F 100% 30.06 in 4.0 mi Calm Calm - N/A   Clear
8:15 AM 69.8 °F - 69.8 °F 100% 30.06 in 7.0 mi SSE 3.5 mph - N/A   Clear
8:35 AM 73.4 °F - 73.4 °F 100% 30.06 in 7.0 mi South 3.5 mph - N/A   Clear
8:55 AM 77.0 °F - 77.0 °F 100% 30.06 in 10.0 mi South 3.5 mph - N/A   Clear
9:35 AM 80.6 °F 88.1 °F 78.8 °F 94% 30.07 in 10.0 mi SSW 5.8 mph - N/A   Clear
9:55 AM 82.4 °F 90.9 °F 77.0 °F 84% 30.07 in 10.0 mi South 3.5 mph - N/A   Clear
10:15 AM 82.4 °F 90.9 °F 77.0 °F 84% 30.08 in 10.0 mi Calm Calm - N/A   Scattered Clouds
10:35 AM 82.4 °F 92.4 °F 78.8 °F 89% 30.08 in 10.0 mi SSW 4.6 mph - N/A   Scattered Clouds
10:55 AM 82.4 °F 92.4 °F 78.8 °F 89% 30.08 in 10.0 mi SSW 4.6 mph - N/A   Mostly Cloudy
11:15 AM 86.0 °F 99.3 °F 78.8 °F 79% 30.07 in 7.0 mi South 6.9 mph - N/A   Mostly Cloudy
11:35 AM 86.0 °F 99.3 °F 78.8 °F 79% 30.06 in 10.0 mi South 4.6 mph - N/A   Scattered Clouds
11:55 AM 86.0 °F 99.3 °F 78.8 °F 79% 30.05 in 10.0 mi South 5.8 mph - N/A   Scattered Clouds
12:15 PM 86.0 °F 99.3 °F 78.8 °F 79% 30.04 in 10.0 mi South 5.8 mph - N/A   Scattered Clouds
12:35 PM 86.0 °F 99.3 °F 78.8 °F 79% 30.05 in 10.0 mi SSE 5.8 mph - N/A   Mostly Cloudy
12:55 PM 86.0 °F 99.3 °F 78.8 °F 79% 30.04 in 10.0 mi SSE 8.1 mph - N/A   Mostly Cloudy
1:15 PM 86.0 °F 99.3 °F 78.8 °F 79% 30.03 in 10.0 mi SSE 9.2 mph - N/A   Scattered Clouds
1:35 PM 87.8 °F 102.5 °F 78.8 °F 75% 30.03 in 10.0 mi South 6.9 mph - N/A   Scattered Clouds
1:55 PM 87.8 °F 102.5 °F 78.8 °F 75% 30.04 in 7.0 mi South 5.8 mph - N/A   Clear
2:15 PM 87.8 °F 102.5 °F 78.8 °F 75% 30.05 in 10.0 mi South 4.6 mph - N/A   Clear
2:35 PM 87.8 °F 99.7 °F 77.0 °F 70% 30.04 in 10.0 mi SE 5.8 mph - N/A   Scattered Clouds
2:55 PM 87.8 °F 102.5 °F 78.8 °F 75% 30.04 in 10.0 mi SE 3.5 mph - N/A Thunderstorm Scattered Clouds
3:15 PM 78.8 °F - 62.6 °F 57% 30.06 in 10.0 mi NW 8.1 mph 25.3 mph N/A   Overcast
3:35 PM 73.4 °F - 68.0 °F 83% 30.06 in 2.5 mi NNE 8.1 mph - 0.06 in Rain , Thunderstorm Heavy Thunderstorms and Rain
3:55 PM 71.6 °F - 69.8 °F 94% 30.06 in 10.0 mi Calm Calm - 0.08 in Rain , Thunderstorm Light Thunderstorms and Rain
4:15 PM 71.6 °F - 69.8 °F 94% 30.07 in 10.0 mi NW 3.5 mph - N/A Rain , Thunderstorm Light Thunderstorms and Rain
4:35 PM 71.6 °F - 71.6 °F 100% 30.08 in 10.0 mi SE 4.6 mph - N/A Thunderstorm Scattered Clouds
4:55 PM 71.6 °F - 71.6 °F 100% 30.05 in 10.0 mi East 9.2 mph - N/A Rain , Thunderstorm Light Thunderstorms and Rain
5:15 PM 71.6 °F - 71.6 °F 100% 30.04 in 10.0 mi ENE 9.2 mph - N/A Thunderstorm Mostly Cloudy
5:35 PM 75.2 °F - 71.6 °F 89% 30.04 in 10.0 mi East 3.5 mph - N/A   Clear
5:55 PM 77.0 °F - 73.4 °F 89% 30.03 in 10.0 mi ESE 6.9 mph - N/A   Clear
6:15 PM 73.4 °F - 71.6 °F 94% 30.04 in 10.0 mi Calm Calm - N/A   Clear
6:35 PM 73.4 °F - 71.6 °F 94% 30.08 in 10.0 mi WNW 10.4 mph 28.8 mph N/A   Mostly Cloudy
6:55 PM 73.4 °F - 71.6 °F 94% 30.07 in 10.0 mi WSW 6.9 mph - N/A   Scattered Clouds
7:15 PM 73.4 °F - 69.8 °F 88% 30.04 in 10.0 mi South 5.8 mph - N/A Thunderstorm Clear
7:35 PM 73.4 °F - 71.6 °F 94% 30.04 in 10.0 mi South 8.1 mph - N/A Thunderstorm Clear
7:55 PM 73.4 °F - 69.8 °F 88% 30.02 in 10.0 mi SSE 5.8 mph - N/A   Clear
8:15 PM 73.4 °F - 69.8 °F 88% 30.03 in 10.0 mi SSW 9.2 mph - N/A Rain , Thunderstorm Light Thunderstorms and Rain
8:35 PM 71.6 °F - 69.8 °F 94% 30.01 in 10.0 mi SSW 8.1 mph - 0.01 in Rain Light Rain
8:55 PM 71.6 °F - 69.8 °F 94% 29.98 in 10.0 mi South 8.1 mph - 0.01 in Rain Light Rain
9:15 PM 71.6 °F - 68.0 °F 88% 29.96 in 10.0 mi SSE 11.5 mph - N/A Rain Light Rain
9:35 PM 71.6 °F - 68.0 °F 88% 30.04 in 10.0 mi North 9.2 mph 18.4 mph N/A   Light Drizzle
9:55 PM 69.8 °F - 68.0 °F 94% 30.05 in 10.0 mi NW 3.5 mph - N/A Rain Light Rain
10:15 PM 69.8 °F - 68.0 °F 94% 30.02 in 10.0 mi SE 9.2 mph - N/A   Scattered Clouds
10:35 PM 69.8 °F - 68.0 °F 94% 30.02 in 10.0 mi Calm Calm - N/A   Scattered Clouds
10:55 PM 69.8 °F - 68.0 °F 94% 30.03 in 10.0 mi SSW 5.8 mph - N/A   Scattered Clouds
11:15 PM 69.8 °F - 68.0 °F 94% 30.03 in 10.0 mi Calm Calm - N/A   Clear
11:35 PM 69.8 °F - 68.0 °F 94% 30.03 in 10.0 mi Calm Calm - N/A   Clear
11:55 PM 69.8 °F - 68.0 °F 94% 30.03 in 10.0 mi North 6.9 mph - N/A   Clear